TA3NHM-2 Weather Reports


Display with metric or nautical units.
time (UTC)temp
F
wind
direction
speed
MPH
gust
MPH
rain 1hr
in
rain 24hr
in
rain mn
in
humidity
%
barometer
mb
20260906074228 80 0 0.0 0.0 0.00 0.00 0.00 38 1003.7
20260906064256 74 0 0.0 0.0 0.00 0.00 0.00 47 1003.7
20260906054332 71 0 0.0 0.0 0.00 0.00 0.00 48 1003.7
20260906044412 70 0 0.0 0.0 0.00 0.00 0.00 50 1003.5
20260906034452 70 0 0.0 0.0 0.00 0.00 0.00 49 1002.9
20260906024532 69 0 0.0 0.0 0.00 0.00 0.00 50 1002.6
20260906014625 72 0 0.0 0.0 0.00 0.00 0.00 44 1002.2
20260906004710 72 0 0.0 0.0 0.00 0.00 0.00 43 1002.3
20260905234755 73 0 0.0 0.0 0.00 0.00 0.00 42 1002.4
20260905224838 74 0 0.0 0.0 0.00 0.00 0.00 40 1002.4
20260905214921 76 0 0.0 0.0 0.00 0.00 0.00 37 1002.6
20260905205006 78 0 0.0 0.0 0.00 0.00 0.00 36 1002.9
20260905195050 80 0 0.0 0.0 0.00 0.00 0.00 34 1002.5
20260905185135 81 0 0.0 0.0 0.00 0.00 0.00 33 1002.3
20260905175218 82 0 0.0 0.0 0.00 0.00 0.00 31 1001.8
20260905165308 84 0 0.0 0.0 0.00 0.00 0.00 33 1001.0
20260905155403 88 0 0.0 0.0 0.00 0.00 0.00 27 1000.1
20260905145451 92 0 0.0 0.0 0.00 0.00 0.00 25 999.8
20260905135535 93 0 0.0 0.0 0.00 0.00 0.00 25 999.7
20260905125612 94 0 0.0 0.0 0.00 0.00 0.00 24 1000.0
20260905115648 93 0 0.0 0.0 0.00 0.00 0.00 25 1000.6
20260905105717 89 0 0.0 0.0 0.00 0.00 0.00 29 1001.2
20260905095746 86 0 0.0 0.0 0.00 0.00 0.00 35 1001.7
20260905085821 82 0 0.0 0.0 0.00 0.00 0.00 40 1002.4